IT9LCP-2 Weather Reports


time (UTC)temp
C
wind
direction
speed
KPH
gust
KPH
rain 1hr
cm
rain 24hr
cm
rain mn
cm
humidity
%
barometer
mb
20260504081145 17 82 3.2 4.8 0.00 0.00 0.00 64 1021.9
20260504080144 17 75 3.2 8.0 0.00 0.00 0.00 63 1021.9
20260504070144 18 96 3.2 4.8 0.00 0.00 0.00 60 1021.9
20260504060144 17 76 1.6 3.2 0.00 0.00 0.00 63 1021.7
20260504050144 12 5 1.6 3.2 0.00 0.00 0.00 80 1021.4
20260504045144 12 354 1.6 3.2 0.00 0.00 0.00 81 1021.2
20260504044144 12 327 1.6 3.2 0.00 0.00 0.00 82 1021.1
20260504043144 12 341 1.6 3.2 0.00 0.00 0.00 82 1021.0
20260504042144 12 2 1.6 3.2 0.00 0.00 0.00 82 1020.9
20260504041144 11 333 1.6 3.2 0.00 0.00 0.00 83 1021.0
20260504040144 11 1 1.6 3.2 0.00 0.00 0.00 83 1020.8
20260504035144 11 331 1.6 3.2 0.00 0.00 0.00 83 1020.7
20260504034144 11 359 1.6 3.2 0.00 0.00 0.00 83 1020.8
20260504033144 11 348 0.0 1.6 0.00 0.00 0.00 83 1020.8
20260504032144 11 337 1.6 3.2 0.00 0.00 0.00 83 1020.9
20260504031144 11 355 1.6 3.2 0.00 0.00 0.00 83 1020.9
20260504025144 11 341 0.0 1.6 0.00 0.00 0.00 83 1020.9
20260504024144 11 342 1.6 1.6 0.00 0.00 0.00 83 1020.9
20260504023144 11 337 1.6 1.6 0.00 0.00 0.00 83 1020.9
20260504022144 11 351 1.6 1.6 0.00 0.00 0.00 82 1021.0
20260504021144 11 0 1.6 3.2 0.00 0.00 0.00 82 1021.0
20260504020144 11 353 1.6 1.6 0.00 0.00 0.00 81 1021.0
20260504015144 11 338 1.6 1.6 0.00 0.00 0.00 81 1020.8
20260504014144 11 338 1.6 1.6 0.00 0.00 0.00 80 1020.9
20260504013144 12 15 1.6 3.2 0.00 0.00 0.00 78 1020.8
20260504012144 11 351 1.6 1.6 0.00 0.00 0.00 81 1020.8
20260504011144 11 331 1.6 3.2 0.00 0.00 0.00 83 1020.7
20260504010144 11 356 1.6 3.2 0.00 0.00 0.00 85 1020.7
20260504005145 11 5 1.6 3.2 0.00 0.00 0.00 86 1020.7
20260504004144 11 7 1.6 1.6 0.00 0.00 0.00 86 1020.9
20260504003144 11 1 1.6 3.2 0.00 0.00 0.00 87 1021.1
20260504002144 11 8 1.6 3.2 0.00 0.00 0.00 86 1020.9
20260504001144 11 15 1.6 3.2 0.00 0.00 0.00 86 1020.9
20260504000144 11 321 1.6 3.2 0.00 0.00 0.00 85 1021.2
20260503235144 11 3 0.0 3.2 0.00 0.00 0.00 84 1021.0
20260503233144 12 354 1.6 3.2 0.00 0.00 0.00 84 1021.3
20260503232144 12 355 1.6 3.2 0.00 0.00 0.00 84 1021.6
20260503231144 12 13 1.6 3.2 0.00 0.00 0.00 84 1021.4
20260503230143 12 20 1.6 3.2 0.00 0.00 0.00 84 1021.4
20260503225144 12 348 1.6 3.2 0.00 0.00 0.00 84 1021.5
20260503224144 12 337 1.6 3.2 0.00 0.00 0.00 84 1021.4
20260503223144 12 347 1.6 3.2 0.00 0.00 0.00 84 1021.6
20260503222144 12 3 1.6 3.2 0.00 0.00 0.00 84 1021.7
20260503221144 12 339 1.6 3.2 0.00 0.00 0.00 84 1021.7
20260503220144 12 0 1.6 3.2 0.00 0.00 0.00 84 1021.7
20260503215144 13 0 1.6 3.2 0.00 0.00 0.00 84 1021.6
20260503214146 13 355 1.6 3.2 0.00 0.00 0.00 83 1021.3
20260503213144 13 344 1.6 3.2 0.00 0.00 0.00 84 1021.3
20260503212144 14 358 1.6 3.2 0.00 0.00 0.00 83 1021.4
20260503211144 14 8 1.6 3.2 0.00 0.00 0.00 81 1021.2
20260503210144 14 351 1.6 3.2 0.00 0.00 0.00 78 1021.4
20260503205143 14 8 1.6 3.2 0.00 0.00 0.00 77 1021.6
20260503202144 14 0 1.6 4.8 0.00 0.00 0.00 77 1021.4
20260503201143 15 7 1.6 3.2 0.00 0.00 0.00 76 1021.2
20260503200144 15 4 1.6 4.8 0.00 0.00 0.00 76 1021.2
20260503195144 15 4 3.2 3.2 0.00 0.00 0.00 75 1021.1
20260503194143 15 355 3.2 4.8 0.00 0.00 0.00 74 1021.2
20260503191143 15 356 1.6 3.2 0.00 0.00 0.00 74 1020.9
20260503190143 15 0 3.2 3.2 0.00 0.00 0.00 74 1020.8
20260503185144 15 349 1.6 4.8 0.00 0.00 0.00 75 1020.6
20260503184144 15 344 1.6 4.8 0.00 0.00 0.00 76 1020.5
20260503183144 15 356 3.2 4.8 0.00 0.00 0.00 76 1020.4
20260503181144 16 346 3.2 4.8 0.00 0.00 0.00 74 1020.2
20260503180144 16 359 3.2 4.8 0.00 0.00 0.00 70 1020.2
20260503175144 16 347 1.6 4.8 0.00 0.00 0.00 70 1020.1
20260503174144 16 346 1.6 3.2 0.00 0.00 0.00 70 1020.2
20260503173144 16 329 1.6 3.2 0.00 0.00 0.00 72 1019.9
20260503172144 16 339 1.6 3.2 0.00 0.00 0.00 70 1020.0
20260503171144 16 347 1.6 3.2 0.00 0.00 0.00 70 1019.9
20260503170144 16 86 1.6 1.6 0.00 0.00 0.00 70 1020.1
20260503160144 17 66 1.6 3.2 0.00 0.00 0.00 62 1020.3
20260503150144 17 96 1.6 4.8 0.00 0.00 0.00 55 1020.3
20260503131144 18 62 3.2 8.0 0.00 0.00 0.00 41 1020.9
20260503130143 18 95 3.2 8.0 0.00 0.00 0.00 42 1020.9
20260503120144 19 100 3.2 8.0 0.00 0.00 0.00 40 1021.4
20260503100143 17 100 3.2 8.0 0.00 0.00 0.00 43 1022.3
20260503090143 17 93 3.2 4.8 0.00 0.00 0.00 43 1022.7